Date String (YYYY-MM-DD hh:mm:ss) UTC,Instrument flags,Ambient pressure (hPa),Sample flow (lpm),Bypass flow (lpm),Sample temperature (°C),Ambient temperature (°C),ASC tube jacket temperature (°C),LED temperature (°C),Box temperature (°C),Sample RH (%),Span deviation,Mass concentration (μg/m³),Mass concentration (μg/m³),Mass concentration (μg/m³)
DateTimeUTC,F1_M11,P_M11,Q1_M11,Q2_M11,T1_M11,T2_M11,T3_M11,T4_M11,T5_M11,U1_M11,ZSPAN_M11,X0_M11,X2_M11,X1_M11
2021-11-25 10:00:00,,0835.4,4.98,0.00,22.5,21.9,00.0,31.4,24.2,14.6,0000.0,0012.63,0007.52,0006.75
2021-11-25 10:01:00,,0835.4,5.01,0.00,22.4,21.8,00.0,31.4,24.2,14.6,0000.0,0012.20,0007.49,0006.74
2021-11-25 10:02:00,,0835.3,5.00,0.00,22.4,21.8,00.0,31.4,24.1,14.6,0000.0,0012.19,0007.50,0006.76
2021-11-25 10:03:00,,0835.2,5.00,0.00,22.4,21.7,00.0,31.4,24.1,14.6,0000.0,0011.96,0007.53,0006.78
2021-11-25 10:04:00,,0835.2,5.01,0.00,22.4,21.7,00.0,31.4,24.1,14.6,0000.0,0011.13,0007.54,0006.79
2021-11-25 10:05:00,,0835.2,4.99,0.00,22.3,21.6,00.0,31.4,24.0,14.7,0000.0,0011.08,0007.55,0006.79
2021-11-25 10:06:00,,0835.2,5.01,0.00,22.3,21.6,00.0,31.4,24.0,14.7,0000.0,0010.87,0007.53,0006.79
2021-11-25 10:07:00,,0835.2,5.00,0.00,22.3,21.6,00.0,31.4,24.0,14.7,0000.0,0010.83,0007.51,0006.79
2021-11-25 10:08:00,,0835.2,4.99,0.00,22.3,21.5,00.0,31.4,24.0,14.7,0000.0,0010.40,0007.47,0006.77
2021-11-25 10:09:00,,0835.2,5.01,0.00,22.3,21.5,00.0,31.3,23.9,14.7,0000.0,0010.66,0007.44,0006.76
2021-11-25 10:10:00,,0835.2,4.99,0.00,22.3,21.8,00.0,31.3,24.0,14.7,0000.0,0011.80,0007.40,0006.73
2021-11-25 10:11:00,,0835.2,5.00,0.00,22.3,22.5,00.0,31.4,24.2,14.6,0000.0,0011.84,0007.37,0006.71
2021-11-25 10:12:00,,0835.2,5.00,0.00,22.5,23.1,00.0,31.4,24.4,14.5,0000.0,0011.69,0007.31,0006.70
2021-11-25 10:13:00,,0835.2,5.01,0.00,22.6,23.1,00.0,31.4,24.5,14.4,0000.0,0011.56,0007.27,0006.68
2021-11-25 10:14:00,,0835.3,4.99,0.00,22.6,22.9,00.0,31.4,24.5,14.4,0000.0,0011.25,0007.20,0006.66
2021-11-25 10:15:00,,0835.3,5.01,0.00,22.6,22.7,00.0,31.4,24.4,14.4,0000.0,0011.06,0007.14,0006.63
2021-11-25 10:16:00,,0835.3,4.99,0.00,22.6,22.5,00.0,31.5,24.3,14.4,0000.0,0011.00,0007.08,0006.62
2021-11-25 10:17:00,,0835.3,4.99,0.00,22.5,22.3,00.0,31.5,24.3,14.4,0000.0,0010.96,0007.03,0006.60
2021-11-25 10:18:00,,0835.3,5.01,0.00,22.5,22.2,00.0,31.5,24.3,14.3,0000.0,0011.19,0007.04,0006.58
2021-11-25 10:19:00,,0835.4,4.99,0.00,22.5,22.1,00.0,31.5,24.2,14.3,0000.0,0011.59,0007.06,0006.57
2021-11-25 10:20:00,,0835.4,5.00,0.00,22.5,22.0,00.0,31.5,24.2,14.4,0000.0,0011.43,0007.09,0006.56
2021-11-25 10:21:00,,0835.4,5.01,0.00,22.4,21.9,00.0,31.5,24.1,14.4,0000.0,0010.24,0007.12,0006.58
2021-11-25 10:22:00,,0835.3,5.00,0.00,22.4,21.8,00.0,31.5,24.1,14.4,0000.0,0010.20,0007.12,0006.58
2021-11-25 10:23:00,,0835.2,4.98,0.00,22.4,21.8,00.0,31.4,24.1,14.4,0000.0,0010.27,0007.14,0006.58
2021-11-25 10:24:00,,0835.2,5.01,0.00,22.4,21.7,00.0,31.4,24.1,14.5,0000.0,0010.29,0007.15,0006.58
2021-11-25 10:25:00,,0835.2,4.99,0.00,22.3,21.7,00.0,31.4,24.0,14.5,0000.0,0010.39,0007.15,0006.58
2021-11-25 10:26:00,,0835.2,5.01,0.00,22.3,21.6,00.0,31.4,24.0,14.5,0000.0,0010.48,0007.16,0006.57
2021-11-25 10:27:00,,0835.2,5.01,0.00,22.3,21.6,00.0,31.4,24.0,14.5,0000.0,0010.52,0007.18,0006.57
2021-11-25 10:28:00,,0835.2,4.99,0.00,22.3,21.6,00.0,31.4,24.0,14.5,0000.0,0010.95,0007.17,0006.56
2021-11-25 10:29:00,,0835.2,5.01,0.00,22.3,21.5,00.0,31.4,24.0,14.5,0000.0,0010.74,0007.19,0006.57
2021-11-25 10:30:00,,0835.2,5.00,0.00,22.3,21.6,00.0,31.4,24.0,14.5,0000.0,0010.31,0007.16,0006.57
2021-11-25 10:31:00,,0835.2,4.99,0.00,22.3,22.3,00.0,31.4,24.1,14.4,0000.0,0010.14,0007.11,0006.57
2021-11-25 10:32:00,,0835.2,4.99,0.00,22.4,23.0,00.0,31.4,24.4,14.4,0000.0,0009.95,0007.04,0006.54
2021-11-25 10:33:00,,0835.2,5.01,0.00,22.6,23.2,00.0,31.4,24.5,14.3,0000.0,0009.84,0007.00,0006.51
2021-11-25 10:34:00,,0835.2,4.99,0.00,22.6,23.0,00.0,31.5,24.5,14.2,0000.0,0009.72,0006.96,0006.47
2021-11-25 10:35:00,,0835.1,5.00,0.00,22.6,22.7,00.0,31.5,24.5,14.1,0000.0,0009.70,0006.92,0006.43
2021-11-25 10:36:00,,0835.1,4.99,0.00,22.6,22.6,00.0,31.5,24.4,14.1,0000.0,0009.78,0006.87,0006.38
2021-11-25 10:37:00,,0835.2,5.01,0.00,22.6,22.4,00.0,31.5,24.4,14.1,0000.0,0009.89,0006.80,0006.34
2021-11-25 10:38:00,,0835.2,5.00,0.00,22.6,22.3,00.0,31.5,24.3,14.0,0000.0,0009.71,0006.72,0006.29
2021-11-25 10:39:00,,0835.2,4.99,0.00,22.6,22.2,00.0,31.5,24.3,14.0,0000.0,0009.57,0006.69,0006.25
2021-11-25 10:40:00,,0835.2,5.01,0.00,22.5,22.0,00.0,31.5,24.3,14.0,0000.0,0009.76,0006.62,0006.20
2021-11-25 10:41:00,,0835.1,4.99,0.00,22.5,22.0,00.0,31.5,24.2,14.0,0000.0,0009.63,0006.54,0006.15
2021-11-25 10:42:00,,0835.1,5.01,0.00,22.5,21.9,00.0,31.5,24.2,14.0,0000.0,0009.58,0006.49,0006.10
2021-11-25 10:43:00,,0835.1,5.01,0.00,22.5,21.9,00.0,31.5,24.2,14.0,0000.0,0009.50,0006.43,0006.04
2021-11-25 10:44:00,,0835.1,4.99,0.00,22.5,21.8,00.0,31.5,24.2,14.0,0000.0,0009.55,0006.41,0006.01
2021-11-25 10:45:00,,0835.1,5.01,0.00,22.4,21.8,00.0,31.5,24.2,14.0,0000.0,0009.55,0006.37,0005.97
2021-11-25 10:46:00,,0835.1,4.99,0.00,22.4,21.7,00.0,31.4,24.1,14.0,0000.0,0009.55,0006.35,0005.95
2021-11-25 10:47:00,,0835.1,5.01,0.00,22.4,21.7,00.0,31.4,24.1,14.0,0000.0,0009.67,0006.31,0005.94
2021-11-25 10:48:00,,0835.0,4.99,0.00,22.4,21.7,00.0,31.4,24.1,14.0,0000.0,0009.69,0006.28,0005.91
2021-11-25 10:49:00,,0835.1,5.00,0.00,22.3,21.6,00.0,31.4,24.0,14.0,0000.0,0009.92,0006.27,0005.88
2021-11-25 10:50:00,,0835.1,4.99,0.00,22.3,21.6,00.0,31.4,24.0,14.0,0000.0,0010.14,0006.24,0005.87
2021-11-25 10:51:00,,0835.1,5.00,0.00,22.3,21.6,00.0,31.4,24.0,14.0,0000.0,0010.19,0006.25,0005.88
2021-11-25 10:52:00,,0835.1,5.00,0.00,22.4,22.0,00.0,31.4,24.1,14.0,0000.0,0010.39,0006.25,0005.87
2021-11-25 10:53:00,,0835.1,5.00,0.00,22.5,22.7,00.0,31.4,24.3,13.8,0000.0,0010.43,0006.23,0005.85
2021-11-25 10:54:00,,0835.1,5.00,0.00,22.6,23.2,00.0,31.5,24.5,13.7,0000.0,0010.45,0006.23,0005.85
2021-11-25 10:55:00,,0835.1,5.01,0.00,22.6,23.0,00.0,31.5,24.5,13.7,0000.0,0010.43,0006.23,0005.85
2021-11-25 10:56:00,,0835.1,5.00,0.00,22.6,22.8,00.0,31.5,24.5,13.7,0000.0,0011.00,0006.25,0005.84
2021-11-25 10:57:00,,0835.2,5.00,0.00,22.6,22.6,00.0,31.5,24.4,13.7,0000.0,0011.43,0006.24,0005.82
2021-11-25 10:58:00,,0835.2,5.01,0.00,22.6,22.4,00.0,31.5,24.3,13.7,0000.0,0011.18,0006.23,0005.80
2021-11-25 10:59:00,,0835.2,5.01,0.00,22.6,22.2,00.0,31.5,24.3,13.7,0000.0,0010.79,0006.26,0005.80
